TimeCDT,TemperatureF,Dew PointF,Humidity,Sea Level PressureIn,VisibilityMPH,Wind Direction,Wind SpeedMPH,Gust SpeedMPH,PrecipitationIn,Events,Conditions,WindDirDegrees,DateUTC
12:54 AM,71.1,64.0,78,30.12,10.0,Calm,Calm,-,N/A,,Clear,0,2013-09-05 05:54:00
1:54 AM,68.0,63.0,84,30.13,10.0,Calm,Calm,-,N/A,,Clear,0,2013-09-05 06:54:00
2:54 AM,69.1,62.1,78,30.12,10.0,Calm,Calm,-,N/A,,Clear,0,2013-09-05 07:54:00
3:54 AM,66.9,63.0,87,30.12,10.0,Calm,Calm,-,N/A,,Clear,0,2013-09-05 08:54:00
4:54 AM,66.9,63.0,87,30.13,10.0,Calm,Calm,-,N/A,,Clear,0,2013-09-05 09:54:00
5:54 AM,66.9,62.1,84,30.13,10.0,Calm,Calm,-,N/A,,Clear,0,2013-09-05 10:54:00
6:54 AM,66.0,62.1,87,30.14,10.0,Calm,Calm,-,N/A,,Clear,0,2013-09-05 11:54:00
7:54 AM,66.9,62.1,84,30.15,10.0,NE,3.5,-,N/A,,Clear,40,2013-09-05 12:54:00
8:54 AM,72.0,63.0,73,30.18,10.0,ENE,3.5,-,N/A,,Clear,60,2013-09-05 13:54:00
9:54 AM,77.0,62.1,60,30.19,10.0,ENE,5.8,-,N/A,,Clear,70,2013-09-05 14:54:00
10:54 AM,82.0,62.1,51,30.19,10.0,East,5.8,-,N/A,,Clear,80,2013-09-05 15:54:00
11:54 AM,84.9,57.9,40,30.17,10.0,Calm,Calm,-,N/A,,Clear,0,2013-09-05 16:54:00
12:54 PM,87.1,57.9,37,30.16,10.0,East,9.2,-,N/A,,Clear,90,2013-09-05 17:54:00
1:54 PM,87.1,55.9,35,30.14,10.0,SE,8.1,-,N/A,,Clear,140,2013-09-05 18:54:00
2:54 PM,88.0,55.9,34,30.11,10.0,Variable,4.6,-,N/A,,Clear,0,2013-09-05 19:54:00
3:54 PM,89.1,57.9,35,30.10,10.0,NE,5.8,-,N/A,,Clear,50,2013-09-05 20:54:00
4:54 PM,89.1,60.1,38,30.10,10.0,Variable,6.9,-,N/A,,Clear,0,2013-09-05 21:54:00
5:54 PM,87.1,60.1,40,30.09,10.0,ENE,8.1,-,N/A,,Clear,70,2013-09-05 22:54:00
6:54 PM,84.9,60.1,43,30.09,10.0,East,10.4,-,N/A,,Clear,90,2013-09-05 23:54:00
7:54 PM,82.0,60.1,47,30.09,10.0,ESE,8.1,-,N/A,,Clear,120,2013-09-06 00:54:00
8:54 PM,81.0,60.1,49,30.10,10.0,ESE,5.8,-,N/A,,Clear,120,2013-09-06 01:54:00
9:54 PM,79.0,60.1,52,30.11,10.0,SE,5.8,-,N/A,,Clear,130,2013-09-06 02:54:00
10:54 PM,79.0,60.1,52,30.11,10.0,ESE,6.9,-,N/A,,Clear,120,2013-09-06 03:54:00
11:54 PM,75.9,60.1,58,30.11,10.0,ENE,3.5,-,N/A,,Clear,70,2013-09-06 04:54:00